Regional Weather Roundup
Issued by NWS

Home | Current Version | Previous Version | Graphics & Text | Print | Product List | Glossary On
Versions: 1 2 3 4 5 6 7 8 9 10 11 12 13 14 15 16 17 18 19 20 21 22 23 24 25 26 27 28 29 30 31 32 33 34 35 36 37 38 39 40 41 42 43 44 45 46 47 48 49 50
000
ASUS43 KLMK 280702
RWRKY
KENTUCKY REGIONAL WEATHER ROUNDUP
NATIONAL WEATHER SERVICE LOUISVILLE KY
300 AM EDT THU AUG 28 2014

NOTE "FAIR" INDICATES FEW OR NO CLOUDS BELOW 12,000 FEET
WITH NO SIGNIFICANT WEATHER AND/OR OBSTRUCTIONS TO VISIBILITY.

KYZ001>023-026-027-061>063-070>075-280800-
WESTERN AND SOUTH CENTRAL KENTUCKY

CITY           SKY/WX    TMP DP  RH WIND       PRES   REMARKS
PADUCAH        MOCLDY    78  72  81 NE5       30.02F
HENDERSON      CLOUDY    73  70  88 N3        30.03F
OWENSBORO      MOCLDY    75  73  93 CALM      30.03F
HOPKINSVILLE   PTCLDY    75  75 100 VRB1      30.03F
BOWLING GREEN  PTCLDY    74  71  91 CALM      30.03F
GLASGOW        PTCLDY    70  70 100 CALM      30.04S FOG
$$

KYZ024-025-028>034-038-045-046-053-280800-
NORTH CENTRAL KENTUCKY

CITY           SKY/WX    TMP DP  RH WIND       PRES   REMARKS
LOUISVILLE/SDF PTCLDY    75  71  87 CALM      30.04F
LOUISVILLE/LOU CLEAR     73  71  93 CALM      30.04F FOG
FORT KNOX      PTCLDY    70  70 100 N6        30.03F
$$

KYZ035>037-039>044-047>052-055>060-089>105-280800-
NORTHEAST KENTUCKY

CITY           SKY/WX    TMP DP  RH WIND       PRES   REMARKS
LEXINGTON      MOCLDY    72  68  87 CALM      30.06F
COVINGTON      PTCLDY    73  68  84 N5        30.06S
FRANKFORT      PTCLDY    70  69  97 CALM      30.04F
$$

KYZ054-064>069-076>088-106>120-280800-
SOUTHEAST KENTUCKY

CITY           SKY/WX    TMP DP  RH WIND       PRES   REMARKS
JACKSON        CLEAR     73  69  87 CALM      30.07F
LONDON         MOCLDY    71  68  90 SE3       30.07S
SOMERSET       NOT AVBL
MIDDLESBORO    CLEAR     65  64  96 CALM      30.08S
MONTICELLO     SUNNY     69  69 100 CALM      30.07F FOG
$$




USA.gov is the U.S. government's official web portal to all federal, state and local government web resources and services.